Regional Weather Roundup
Issued by NWS

Home | Current Version | Previous Version | Text Only | Print | Product List | Glossary Off
Versions: 1 2 3 4 5 6 7 8 9 10 11 12 13 14 15 16 17 18 19 20 21 22 23 24 25 26 27 28 29 30 31 32 33 34 35 36 37 38 39 40 41 42 43 44 45 46 47 48 49 50

000
ASUS45 KPSR 250300
RWRAZ

PRELIMINARY ARIZONA REGIONAL HOURLY WEATHER ROUNDUP
NATIONAL WEATHER SERVICE PHOENIX AZ
800 PM MST SAT JAN 24 2015

NOTE: FAIR INDICATES FEW OR NO CLOUDS BELOW 12,000 FEET WITH NO
SIGNIFICANT WEATHER AND/OR OBSTRUCTIONS TO VISIBILITY.

AZZ001>003-036-250400-
NORTHWEST ARIZONA

CITY           SKY/WX    TMP DP  RH WIND       PRES   REMARKS
BULLHEAD CITY  CLEAR     66  23  19 N18G31    30.14R
KINGMAN        CLEAR     45  20  36 E8        30.23R
$$

AZZ004>008-015-016-018-250400-
NORTH CENTRAL ARIZONA

CITY           SKY/WX    TMP DP  RH WIND       PRES   REMARKS
GRAND CANYON   PTCLDY    27  14  58 CALM      30.32R
PRESCOTT       CLEAR     39  14  36 VRB3      30.22R
FLAGSTAFF      NOT AVBL
PAYSON         CLEAR     46  12  25 N9        30.22R
$$

AZZ009>014-017-250400-
NORTHEAST ARIZONA

CITY           SKY/WX    TMP DP  RH WIND       PRES   REMARKS
WINSLOW        NOT AVBL
SAINT JOHNS    CLEAR     34  19  54 CALM      30.27R
WINDOW ROCK    CLEAR     36  20  52 N6        30.29R WCI  31
$$

AZZ023-250400-
GREATER PHOENIX AREA

CITY           SKY/WX    TMP DP  RH WIND       PRES   REMARKS
PHOENIX        CLEAR     64  20  18 CALM      30.02R
LUKE AFB       NOT AVBL
DEER VALLEY    CLEAR     60  12  15 CALM      30.04R
SCOTTSDALE     CLEAR     62  18  18 N6        30.06R
MESA-FALCON    PTCLDY    64  18  16 N7        30.04R
MESA-GATEWAY   PTCLDY    55  18  22 E3        30.06R
CHANDLER       PTCLDY    63  18  17 VRB5      30.04R
$$

AZZ027-028-250400-
SOUTHWEST MARICOPA COUNTY AND PINAL COUNTY

CITY           SKY/WX    TMP DP  RH WIND       PRES   REMARKS
CASA GRANDE    PTCLDY    63   9  12 E9        30.04R
GILA BEND      FAIR      60  13  16 SE6       30.02R
$$

AZZ503-504-507>509-250400-
SOUTHEAST ARIZONA

CITY           SKY/WX    TMP DP  RH WIND       PRES   REMARKS
TUCSON         MOCLDY    59   9  13 SE14      30.07S
DAVIS-MONTHAN  MOCLDY    57  11  16 SE12      30.05S
RYAN FIELD       N/A     59  12  15 SE5       30.07R
NOGALES        CLOUDY    54  12  18 NE9       30.09S
SIERRA VISTA   CLOUDY    46  13  26 SW3       30.16S
SAFFORD        MOCLDY    50  13  22 E8        30.15R
$$

AZZ020-021-025-026-031-250400-
SOUTHWEST ARIZONA

CITY           SKY/WX    TMP DP  RH WIND       PRES   REMARKS
YUMA           CLEAR     68  19  15 N8        30.03R
$$

CAZ031-033-041-043-047-048-061-250400-
SOUTHERN CALIFORNIA

CITY           SKY/WX    TMP DP  RH WIND       PRES   REMARKS
DOWNTOWN L.A.  CLEAR     67  33  28 CALM      29.99R
L.A. AIRPORT   CLEAR     65  39  38 W3        30.00R
SAN DIEGO      PTCLDY    68  40  35 N3        30.00R
BURBANK        CLEAR     69  20  15 N6        30.01R
ONTARIO        CLEAR     70  17  13 E13       30.03R
RIVERSIDE      CLEAR     69  19  15 NE7       30.07R
PALM SPRINGS   CLEAR     72  18  13 NW9       30.10R
EL CENTRO NAS  CLEAR     57  23  26 W8        30.05R
IMPERIAL       CLEAR     55  26  32 SW5       30.04R
BLYTHE         CLEAR     65  18  16 NW10      30.06R
$$

NVZ020-UTZ003-250400-
SOUTHERN NEVADA-UTAH

CITY           SKY/WX    TMP DP  RH WIND       PRES   REMARKS
LAS VEGAS      NOT AVBL
SALT LAKE CITY CLOUDY    36  26  67 N5        30.47R WCI  32
$$

NMZ009-TXZ055-250400-
NEW MEXICO-WEST TEXAS

CITY           SKY/WX    TMP DP  RH WIND       PRES   REMARKS
ALBUQUERQUE    PTCLDY    42  20  41 N8        30.23S
EL PASO        MOCLDY    42  27  55 S8        30.18F
$$


........................KEY........................
SKY/WX - SKY CONDITION/WEATHER
TMP    - TEMPERATURE IN FAHRENHEIT
DP     - DEW POINT IN FAHRENHEIT
RH     - RELATIVE HUMIDITY IN PERCENT
WIND   - DIRECTION AND SPEED IN MILES PER HOUR (MPH)
VRB    - VARIABLE WIND DIRECTION
PRES   - MEAN SEA LEVEL PRESSURE IN INCHES OF MERCURY
         F - FALLING PRESSURE   R - RISING PRESSURE
         S - STEADY PRESSURE
VSB    - VISIBILITY IN MILES
HX     - HEAT INDEX IN FAHRENHEIT
WCI    - WIND CHILL INDEX IN FAHRENHEIT
TC     - TEMPERATURE IN CELSIUS WHICH IS ALSO KNOWN AS
         TEMPERATURE IN CENTIGRADE
AFB    - AIR FORCE BASE
         LUKE AFB IS LUKE AIR FORCE BASE
         DAVIS-MONTHAN IS DAVIS-MONTHAN AIR FORCE BASE
NAS    - NAVAL AIR STATION
         EL CENTRO NAS IS EL CENTRO NAVAL AIR STATION
N/A    - NOT AVAILABLE


USA.gov is the U.S. government's official web portal to all federal, state and local government web resources and services.